Location: El Águila
(10.4167°N, 66.7167°W)
Time: 04:29:19
(UTC+00:00)

Cosmos 2082 - Pass Details

Date: 02 October 2022
Orbit: 832 x 856 km, 71.0° (Epoch: 04 December)

Event Time Altitude Azimuth Distance (km) Brightness Sun altitude
Rises 23:23:29 0° 352° (N) 3,416 7.0 -17.3°
Reaches altitude 10° 23:25:59 10° 356° (N) 2,480 6.2 -17.9°
Maximum altitude 23:31:34 55° 74° (ENE) 1,017 3.7 -19.2°
Enters shadow 23:35:58 16° 147° (SSE) 2,063 5.4 -20.3°
